Flag for Canada Weather past 2 weeks in Regina, Saskatchewan, Canada

Now
45 °F

Partly sunny.


Feels Like: 38 °F
Forecast: 40 / 54 °F
Wind: 15 mph from West

Location: Regina Weather Station


UV Index: 0 (Low)

Visibility: 15 mi


Pressure: 29.73 "Hg

Humidity: 71%

Dew point: 36 °F

Location of ReginaLocation

Historic Weather in Regina

°F

Regina temperature yesterday

Maximum temperature yesterday: 52 °F (at 12:00 AM)
Minimum temperature yesterday: 43 °F (at 7:00 PM)
Average temperature yesterday: 45 °F

Past Weeks' High & Low Weather Summary

 TemperatureHumidityPressure
High68 °F (Apr 22, 2:00 PM)100% (Apr 12, 4:00 AM)30.45 "Hg (Apr 12, 4:00 AM)
Low12 °F (Apr 14, 4:00 AM)26% (Apr 22, 4:00 PM)29.54 "Hg (Apr 23, 4:00 PM)
Average36 °F75%29.99 "Hg
* Reported Apr 9 12:00 Noon — Apr 24 12:00 Noon, Regina, Weather by CustomWeather, © 2014

Note: Actual official high and low records may vary slightly from our data, if they occured in-between our weather recording intervals... More about our weather records

Advertising

Historic Weather Conditions — Data for Previous 24 hours

 ConditionsComfort  
Time TempWeatherWind HumidityBarometerVisibility
12:00 PM
Apr 24
45 °FPartly sunny.15 mph71%29.73 "Hg15 mi
11:00 AM41 °FPartly sunny.14 mph81%29.73 "Hg15 mi
10:00 AM41 °FOvercast.16 mph81%29.73 "Hg15 mi
9:00 AM41 °FOvercast.17 mph81%29.72 "Hg15 mi
8:00 AM41 °FPartly sunny.13 mph87%29.71 "Hg15 mi
7:00 AM39 °FPartly sunny.9 mph93%29.70 "Hg15 mi
6:00 AM39 °FBroken clouds.7 mph93%29.68 "Hg15 mi
5:00 AM41 °FLight rain. Partly cloudy.12 mph93%29.68 "Hg15 mi
4:00 AM41 °FLight rain. Passing clouds.9 mph93%29.65 "Hg15 mi
3:00 AM41 °FLight rain. Overcast.9 mph100%29.64 "Hg15 mi
2:00 AM43 °FLight rain. Overcast.8 mph93%29.63 "Hg12 mi
1:00 AM43 °FLight rain. Overcast.10 mph93%29.62 "Hg10 mi
12:00 AM45 °FLight rain. Overcast.5 mph93%29.60 "Hg15 mi
11:00 PM
Apr 23
45 °FLight rain. Overcast.12 mph93%29.60 "Hg12 mi
10:00 PM43 °FLight rain. Mostly cloudy.9 mph100%29.59 "Hg10 mi
9:45 PM43 °FLight rain. Mostly cloudy.7 mph100%29.59 "Hg10 mi
9:00 PM43 °FLight rain. Overcast.5 mph100%29.59 "Hg10 mi
8:00 PM43 °FLight rain. Mostly cloudy.5 mph100%29.57 "Hg10 mi
7:00 PM43 °FLight rain. Fog.6 mph100%29.56 "Hg6 mi
6:00 PM45 °FLight rain. Fog.17 mph100%29.55 "Hg4 mi
5:00 PM45 °FLight rain. Fog.17 mph100%29.55 "Hg4 mi
4:00 PM45 °FLight rain. Fog.24 mph93%29.54 "Hg3 mi
3:00 PM45 °FLight rain. Fog.18 mph93%29.54 "Hg6 mi
2:00 PM45 °FLight rain. Fog.24 mph93%29.54 "Hg3 mi
1:00 PM45 °FLight rain. Overcast.21 mph93%29.55 "Hg9 mi
Weather by CustomWeather, © 2014

See weather overview